Location: Dana
(41.8364°N, 106.7042°W)
Time: 20:42:09
(UTC+00:00)

Injun/Solrad 3 - Pass Details

Date: 19 May 2026
Orbit: 867 x 989 km, 66.8° (Epoch: 6 June)

Event Time Altitude Azimuth Distance (km) Brightness Sun altitude
Rises 21:21:34 0° 202° (SSW) 3,499 11.3 53.5°
Reaches altitude 10° 21:24:02 10° 201° (SSW) 2,579 10.8 53.1°
Maximum altitude 21:30:00 74° 117° (ESE) 964 8.8 52.1°
Drops below altitude 10° 21:36:13 10° 33° (NNE) 2,681 10.1 51.0°
Sets 21:38:49 0° 32° (NNE) 3,647 10.7 50.6°
